| time (UTC) | temp F | wind direction | speed MPH | gust MPH | rain 1hr in | rain 24hr in | rain mn in | humidity % | barometer mb |
| 20260503013249 | 67 | 315 | 5.0 | 8.0 | 0.00 | 0.00 | 0.00 | 51 | 1018.4 |
| 20260503012151 | 67 | 338 | 5.0 | 7.0 | 0.00 | 0.00 | 0.00 | 50 | 1018.4 |
| 20260503011105 | 67 | 338 | 5.0 | 8.0 | 0.00 | 0.00 | 0.00 | 50 | 1018.4 |
| 20260503010327 | 68 | 293 | 6.0 | 8.0 | 0.00 | 0.00 | 0.00 | 48 | 1017.6 |
| 20260503010027 | 68 | 315 | 5.0 | 8.0 | 0.00 | 0.00 | 0.00 | 49 | 1017.6 |
| 20260503004323 | 69 | 315 | 6.0 | 10.0 | 0.00 | 0.00 | 0.00 | 48 | 1017.7 |
| 20260503002759 | 69 | 315 | 6.0 | 9.0 | 0.00 | 0.00 | 0.00 | 47 | 1017.7 |
| 20260503002201 | 69 | 338 | 7.0 | 11.0 | 0.00 | 0.00 | 0.00 | 46 | 1017.2 |
| 20260503001119 | 70 | 338 | 10.0 | 13.0 | 0.00 | 0.00 | 0.00 | 45 | 1017.2 |
| 20260502235544 | 70 | 315 | 10.0 | 13.0 | 0.00 | 0.00 | 0.00 | 45 | 1017.1 |
| 20260502234457 | 71 | 338 | 9.0 | 12.0 | 0.00 | 0.00 | 0.00 | 45 | 1017.1 |
| 20260502233415 | 71 | 0 | 9.0 | 12.0 | 0.00 | 0.00 | 0.00 | 45 | 1016.7 |
| 20260502232327 | 71 | 338 | 10.0 | 14.0 | 0.00 | 0.00 | 0.00 | 45 | 1016.7 |
| 20260502231241 | 71 | 338 | 10.0 | 17.0 | 0.00 | 0.00 | 0.00 | 45 | 1016.7 |
| 20260502230155 | 71 | 338 | 10.0 | 13.0 | 0.00 | 0.00 | 0.00 | 45 | 1016.7 |
| 20260502225106 | 71 | 0 | 11.0 | 16.0 | 0.00 | 0.00 | 0.00 | 43 | 1016.5 |
| 20260502224028 | 71 | 0 | 13.0 | 19.0 | 0.00 | 0.00 | 0.00 | 43 | 1016.1 |
| 20260502222942 | 72 | 338 | 14.0 | 17.0 | 0.00 | 0.00 | 0.00 | 43 | 1016.1 |
| 20260502221852 | 72 | 23 | 14.0 | 19.0 | 0.00 | 0.00 | 0.00 | 44 | 1015.9 |
| 20260502220806 | 72 | 315 | 13.0 | 17.0 | 0.00 | 0.00 | 0.00 | 45 | 1015.9 |
| 20260502215719 | 72 | 338 | 13.0 | 21.0 | 0.00 | 0.00 | 0.00 | 45 | 1016.2 |
| 20260502214633 | 72 | 338 | 12.0 | 15.0 | 0.00 | 0.00 | 0.00 | 47 | 1016.2 |
| 20260502213548 | 72 | 315 | 12.0 | 20.0 | 0.00 | 0.00 | 0.00 | 46 | 1015.9 |
| 20260502212943 | 72 | 315 | 12.0 | 14.0 | 0.00 | 0.00 | 0.00 | 49 | 1015.9 |
| 20260502211420 | 72 | 338 | 11.0 | 14.0 | 0.00 | 0.00 | 0.00 | 52 | 1016.1 |
| 20260502210333 | 73 | 315 | 13.0 | 15.0 | 0.00 | 0.00 | 0.00 | 53 | 1016.1 |
| 20260502205247 | 73 | 315 | 12.0 | 20.0 | 0.00 | 0.00 | 0.00 | 54 | 1016.2 |
| 20260502204202 | 73 | 315 | 12.0 | 15.0 | 0.00 | 0.00 | 0.00 | 55 | 1016.2 |
| 20260502203118 | 73 | 338 | 13.0 | 18.0 | 0.00 | 0.00 | 0.00 | 55 | 1016.5 |
| 20260502202034 | 73 | 338 | 12.0 | 18.0 | 0.00 | 0.00 | 0.00 | 55 | 1016.6 |
| 20260502201423 | 73 | 270 | 14.0 | 17.0 | 0.00 | 0.00 | 0.00 | 55 | 1016.6 |
| 20260502195900 | 73 | 23 | 13.0 | 23.0 | 0.00 | 0.00 | 0.00 | 54 | 1016.6 |
| 20260502195248 | 73 | 315 | 14.0 | 17.0 | 0.00 | 0.00 | 0.00 | 55 | 1016.6 |
| 20260502193724 | 73 | 338 | 14.0 | 23.0 | 0.00 | 0.00 | 0.00 | 55 | 1016.8 |
| 20260502192638 | 73 | 315 | 13.0 | 17.0 | 0.00 | 0.00 | 0.00 | 54 | 1016.8 |
| 20260502191557 | 72 | 293 | 13.0 | 26.0 | 0.00 | 0.00 | 0.00 | 56 | 1016.6 |
| 20260502190507 | 72 | 0 | 14.0 | 23.0 | 0.00 | 0.00 | 0.00 | 56 | 1016.6 |
| 20260502185419 | 71 | 315 | 15.0 | 18.0 | 0.00 | 0.00 | 0.00 | 56 | 1016.9 |
| 20260502184332 | 71 | 315 | 15.0 | 21.0 | 0.00 | 0.00 | 0.00 | 57 | 1016.9 |
| 20260502183247 | 71 | 45 | 14.0 | 21.0 | 0.00 | 0.00 | 0.00 | 57 | 1016.8 |
| 20260502182507 | 70 | 23 | 13.0 | 17.0 | 0.00 | 0.00 | 0.00 | 57 | 1016.7 |
| 20260502182202 | 71 | 315 | 13.0 | 21.0 | 0.00 | 0.00 | 0.00 | 59 | 1016.8 |
| 20260502163420 | 67 | 293 | 10.0 | 17.0 | 0.00 | 0.00 | 0.00 | 69 | 1018.2 |
| 20260502162335 | 66 | 45 | 9.0 | 19.0 | 0.00 | 0.00 | 0.00 | 70 | 1018.2 |
| 20260502161250 | 65 | 338 | 10.0 | 12.0 | 0.00 | 0.00 | 0.00 | 70 | 1018.5 |
| 20260502160211 | 65 | 45 | 10.0 | 17.0 | 0.00 | 0.00 | 0.00 | 71 | 1018.5 |
| 20260502151900 | 65 | 23 | 13.0 | 17.0 | 0.00 | 0.00 | 0.00 | 71 | 1017.4 |
| 20260502150817 | 64 | 23 | 11.0 | 15.0 | 0.00 | 0.00 | 0.00 | 72 | 1017.4 |
| 20260502123729 | 58 | 23 | 9.0 | 13.0 | 0.00 | 0.00 | 0.00 | 84 | 1015.7 |
| 20260502122642 | 58 | 338 | 11.0 | 14.0 | 0.00 | 0.00 | 0.00 | 84 | 1015.7 |
| 20260502121558 | 58 | 338 | 10.0 | 15.0 | 0.00 | 0.00 | 0.00 | 84 | 1015.2 |
| 20260502120512 | 58 | 0 | 10.0 | 14.0 | 0.00 | 0.00 | 0.00 | 84 | 1015.2 |
| 20260502115427 | 58 | 68 | 11.0 | 16.0 | 0.00 | 0.00 | 0.00 | 84 | 1014.7 |
| 20260502115300 | 58 | 315 | 12.0 | 14.0 | 0.00 | 0.00 | 0.00 | 84 | 1014.7 |
| 20260502113254 | 58 | 338 | 11.0 | 16.0 | 0.00 | 0.00 | 0.00 | 84 | 1014.4 |
| 20260502112208 | 58 | 338 | 12.0 | 18.0 | 0.00 | 0.00 | 0.00 | 85 | 1014.4 |
| 20260502111123 | 58 | 23 | 11.0 | 15.0 | 0.00 | 0.00 | 0.00 | 84 | 1014.1 |
| 20260502110037 | 58 | 315 | 12.0 | 14.0 | 0.00 | 0.00 | 0.00 | 84 | 1013.9 |
| 20260502105438 | 58 | 315 | 13.0 | 19.0 | 0.00 | 0.00 | 0.00 | 84 | 1013.9 |
| 20260502103910 | 58 | 0 | 12.0 | 16.0 | 0.00 | 0.00 | 0.00 | 84 | 1013.4 |
| 20260502102820 | 58 | 315 | 11.0 | 13.0 | 0.00 | 0.00 | 0.00 | 84 | 1013.4 |
| 20260502102219 | 58 | 338 | 12.0 | 16.0 | 0.00 | 0.00 | 0.00 | 84 | 1013.5 |
| 20260502100650 | 58 | 23 | 11.0 | 17.0 | 0.00 | 0.00 | 0.00 | 84 | 1013.5 |
| 20260502091300 | 59 | 315 | 11.0 | 18.0 | 0.00 | 0.00 | 0.00 | 85 | 1012.6 |
| 20260502090215 | 59 | 338 | 10.0 | 13.0 | 0.00 | 0.00 | 0.00 | 85 | 1012.6 |
| 20260502070827 | 61 | 293 | 10.0 | 13.0 | 0.00 | 0.00 | 0.00 | 85 | 1013.1 |
| 20260502065750 | 61 | 315 | 10.0 | 17.0 | 0.00 | 0.00 | 0.00 | 85 | 1013.8 |
| 20260502064219 | 62 | 270 | 7.0 | 10.0 | 0.00 | 0.00 | 0.00 | 85 | 1013.8 |
| 20260502063130 | 62 | 315 | 9.0 | 16.0 | 0.00 | 0.00 | 0.00 | 84 | 1013.0 |
| 20260502062048 | 62 | 338 | 10.0 | 13.0 | 0.00 | 0.00 | 0.00 | 84 | 1012.9 |
| 20260502061000 | 63 | 338 | 10.0 | 13.0 | 0.00 | 0.00 | 0.00 | 84 | 1012.9 |
| 20260502060348 | 63 | 315 | 7.0 | 11.0 | 0.00 | 0.00 | 0.00 | 85 | 1012.7 |
| 20260502054825 | 63 | 23 | 6.0 | 8.0 | 0.00 | 0.00 | 0.00 | 85 | 1012.7 |
| 20260502054224 | 62 | 315 | 9.0 | 11.0 | 0.00 | 0.00 | 0.00 | 85 | 1012.1 |
| 20260502052657 | 62 | 23 | 9.0 | 12.0 | 0.00 | 0.00 | 0.00 | 85 | 1012.1 |
| 20260502052056 | 63 | 315 | 9.0 | 13.0 | 0.00 | 0.00 | 0.00 | 85 | 1012.9 |
| 20260502050527 | 63 | 23 | 7.0 | 9.0 | 0.00 | 0.00 | 0.00 | 85 | 1012.9 |
| 20260502045441 | 63 | 315 | 6.0 | 9.0 | 0.00 | 0.00 | 0.00 | 85 | 1012.7 |
| 20260502044354 | 63 | 338 | 4.0 | 5.0 | 0.00 | 0.00 | 0.00 | 86 | 1012.7 |
| 20260502043310 | 63 | 45 | 5.0 | 10.0 | 0.00 | 0.00 | 0.00 | 86 | 1013.0 |
| 20260502042226 | 63 | 45 | 3.0 | 5.0 | 0.00 | 0.00 | 0.00 | 86 | 1013.0 |
| 20260502041621 | 63 | 23 | 4.0 | 6.0 | 0.00 | 0.00 | 0.00 | 86 | 1012.4 |
| 20260502040053 | 63 | 23 | 6.0 | 9.0 | 0.00 | 0.00 | 0.00 | 86 | 1011.6 |
| 20260502035007 | 62 | 315 | 7.0 | 8.0 | 0.00 | 0.00 | 0.00 | 86 | 1011.6 |
| 20260502033923 | 62 | 45 | 6.0 | 11.0 | 0.00 | 0.00 | 0.00 | 86 | 1012.1 |
| 20260502032839 | 62 | 23 | 7.0 | 11.0 | 0.00 | 0.00 | 0.00 | 86 | 1012.1 |
| 20260502031751 | 62 | 68 | 6.0 | 12.0 | 0.00 | 0.00 | 0.00 | 86 | 1012.4 |
| 20260502030709 | 62 | 23 | 5.0 | 9.0 | 0.00 | 0.00 | 0.00 | 86 | 1012.4 |
| 20260502025620 | 62 | 45 | 6.0 | 12.0 | 0.00 | 0.00 | 0.00 | 86 | 1012.0 |
| 20260502024534 | 62 | 23 | 8.0 | 12.0 | 0.00 | 0.00 | 0.00 | 86 | 1012.0 |
| 20260502023448 | 62 | 23 | 7.0 | 11.0 | 0.00 | 0.00 | 0.00 | 86 | 1011.6 |
| 20260502022403 | 62 | 23 | 8.0 | 15.0 | 0.00 | 0.00 | 0.00 | 86 | 1011.6 |
| 20260502021319 | 62 | 23 | 9.0 | 13.0 | 0.00 | 0.00 | 0.00 | 86 | 1011.1 |
| 20260502020237 | 62 | 23 | 9.0 | 14.0 | 0.00 | 0.00 | 0.00 | 86 | 1011.1 |
| 20260502015148 | 62 | 23 | 9.0 | 14.0 | 0.00 | 0.00 | 0.00 | 86 | 1011.7 |
| 20260502014103 | 62 | 0 | 9.0 | 15.0 | 0.00 | 0.00 | 0.00 | 86 | 1011.6 |